Location: ??????
(38.1303°N, 24.0039°E)
Time: 02:36:12
(UTC+00:00)

BREEZE-M DEB (TANK) - Pass Details

Date: 20 June 2021
Orbit: 335 x 16572 km, 49.3° (Epoch: 04 August)

Event Time Altitude Azimuth Distance (km) Brightness Sun altitude
Rises 02:04:39 0° 312° (NW) 2,115 5.2 -9.8°
Reaches altitude 10° 02:06:20 10° 325° (NW) 1,311 4.3 -9.6°
Maximum altitude 02:08:34 33° 34° (NE) 765 3.9 -9.2°
Drops below altitude 10° 02:12:35 10° 101° (ESE) 2,371 6.1 -8.6°
Sets 02:16:55 0° 110° (ESE) 4,479 7.4 -8.0°
